• Join FlightAware (Why Join?)
  • Login
  • US Flag GB Flag 
18:27 EDT


 

Airport Tracker/Info


-or-


 

Live Flight TrackerFlight Track Log ✈ ASQ5958 ✈ 13-May-2013 ✈ KSYR - KORD

Flight Track Log - Related Links

Times and Time Zones

All times are in EDT time to prevent confusion due to time zone crossing. See the ASQ5958 flight status page for this flight to view local times or setup timezone preferences in your user account.

Time Position Orientation Groundspeed Altitude Reporting Facility
EDT Latitude Longitude Course Direction KTS MPH feet Rate Location/Type
13:47 43.1267 -76.1244 303° West 162 186 1,200  Level Boston Center
13:48 43.1500 -76.1744 303° West 169 194 3,400 2,220 Climbing Boston Center
13:49 43.1683 -76.2522 288° West 237 273 5,500 1,920 Climbing Boston Center
13:51 43.1986 -76.4306 283° West 202 232 10,200 1,440 Climbing Cleveland Center
13:52 43.2150 -76.5378 282° West 240 276 10,500 780 Climbing Cleveland Center
13:53 43.2128 -76.6606 269° West 290 334 11,800 1,200 Climbing Cleveland Center
13:54 43.2131 -76.7886 270° West 326 375 12,900 1,020 Climbing Cleveland Center
13:55 43.2108 -76.9197 269° West 347 399 13,900 1,080 Climbing Cleveland Center
13:56 43.2072 -77.0739 268° West 361 415 15,100 1,080 Climbing Cleveland Center
13:57 43.2072 -77.2078 270° West 366 421 16,100 960 Climbing Cleveland Center
13:58 43.2047 -77.3447 269° West 366 421 17,100 900 Climbing Cleveland Center
13:59 43.2061 -77.4728 271° West 366 421 18,000 960 Climbing Cleveland Center
14:00 43.2036 -77.6125 269° West 371 427 19,100 1,020 Climbing Cleveland Center
14:01 43.2031 -77.7550 270° West 371 427 20,100 960 Climbing Cleveland Center
14:02 43.2003 -77.9006 269° West 377 434 21,100 960 Climbing Cleveland Center
14:03 43.1972 -78.0458 268° West 383 441 22,100 960 Climbing Cleveland Center
14:04 43.1964 -78.1939 270° West 388 447 23,100 960 Climbing Cleveland Center
14:05 43.1928 -78.3364 268° West 388 447 24,100 720 Climbing Cleveland Center
14:06 43.1914 -78.4847 269° West 388 447 24,600 540 Climbing Cleveland Center
14:07 43.1878 -78.6386 268° West 393 452 25,200 540 Climbing Cleveland Center
14:08 43.1842 -78.7922 268° West 398 458 25,700 480 Climbing Cleveland Center
14:09 43.1800 -78.9433 268° West 403 464 26,200 480 Climbing Cleveland Center
14:09 43.1667 -79.0000 252° West 400 460 26,400 480 Climbing Toronto Center
14:10 43.1667 -79.1333 270° West 400 460 26,900 540 Climbing Toronto Center
14:11 43.1667 -79.2833 270° West 400 460 27,500 540 Climbing Toronto Center
14:12 43.1500 -79.4500 262° West 400 460 28,000 660 Climbing Toronto Center
14:13 43.1500 -79.5833 270° West 400 460 28,900 900 Climbing Toronto Center
14:14 43.1500 -79.7500 270° West 390 449 29,900 960 Climbing Toronto Center
14:15 43.1500 -79.8833 270° West 390 449 30,900 960 Climbing Toronto Center
14:16 43.1333 -80.0167 260° West 390 449 31,900 960 Climbing Toronto Center
14:17 43.1333 -80.1833 270° West 380 437 32,900 1,020 Climbing Toronto Center
14:18 43.1333 -80.3333 270° West 390 449 34,000 1,020 Climbing Toronto Center
14:19 43.1333 -80.4833 270° West 380 437 35,000 900 Climbing Toronto Center
14:20 43.1167 -80.6167 260° West 380 437 35,900 480 Climbing Toronto Center
14:21 43.1167 -80.7667 270° West 380 437 36,000  Climbing Toronto Center
14:22 43.1000 -80.9167 261° West 400 460 36,000  Level Toronto Center
14:23 43.1000 -81.0667 270° West 410 472 36,000  Level Toronto Center
14:24 43.0833 -81.2333 262° West 430 495 36,000  Level Toronto Center
14:25 43.0833 -81.3833 270° West 430 495 36,000  Level Toronto Center
14:26 43.0833 -81.5667 270° West 430 495 36,000  Level Toronto Center
14:27 43.0667 -81.7333 262° West 420 483 36,000  Level Toronto Center
14:28 43.0667 -81.9000 270° West 420 483 36,000  Level Toronto Center
14:29 43.0500 -82.0500 261° West 420 483 36,000  Level Toronto Center
14:30 43.0500 -82.2167 270° West 430 495 36,000  Level Toronto Center
14:31 43.0333 -82.3667 261° West 430 495 36,000  Level Toronto Center
14:32 43.0333 -82.5333 270° West 430 495 36,000  Level Toronto Center
14:33 43.0314 -82.6481 269° West 425 489 36,000  Level Cleveland Center
14:34 43.0244 -82.8011 267° West 419 482 36,000  Level Cleveland Center
14:35 43.0153 -82.9514 265° West 413 475 36,000  Level Cleveland Center
14:36 43.0058 -83.1042 265° West 403 464 36,000  Level Cleveland Center
14:37 42.9964 -83.2486 265° West 416 479 36,000  Level Cleveland Center
14:38 42.9883 -83.4044 266° West 421 484 36,000  Level Cleveland Center
14:39 42.9783 -83.5544 265° West 421 484 36,000  Level Cleveland Center
14:40 42.9681 -83.7100 265° West 416 479 36,000  Level Cleveland Center
14:41 42.9533 -83.8653 263° West 421 484 36,000 -120 Level Cleveland Center
14:42 42.9383 -84.0233 263° West 421 484 35,800 -600 Descending Cleveland Center
14:43 42.9231 -84.1786 262° West 421 484 34,800 -1,200 Descending Cleveland Center
14:45 42.8892 -84.5286 263° West 413 475 32,000 -900 Descending Chicago Center
14:46 42.8739 -84.6853 262° West 418 481 32,000  Level Chicago Center
14:47 42.8567 -84.8439 262° West 424 488 32,000  Level Chicago Center
14:48 42.8397 -85.0042 262° West 426 490 32,000  Level Chicago Center
14:49 42.8231 -85.1658 262° West 432 497 32,000 -300 Level Chicago Center
14:50 42.8047 -85.3267 261° West 431 496 31,400 -900 Descending Chicago Center
14:51 42.7833 -85.5133 261° West 418 481 30,200 -1,080 Descending Chicago Center
14:52 42.7553 -85.6731 257° West 429 494 29,200 -1,260 Descending Chicago Center
14:54 42.7250 -85.8414 256° West 450 518 27,600 -2,280 Descending Chicago Center
14:55 42.6942 -86.0042 256° West 444 511 24,500 -3,000 Descending Chicago Center
14:56 42.6664 -86.1569 256° West 421 484 21,400 -2,220 Descending Chicago Center
14:57 42.6394 -86.3039 256° West 403 464 20,000 -960 Descending Chicago Center
14:58 42.6122 -86.4478 256° West 397 457 19,500 -1,440 Descending Chicago Center
14:59 42.5803 -86.6161 256° West 384 442 17,100 -2,040 Descending Chicago Center
15:00 42.5539 -86.7533 255° West 378 435 15,300 -1,800 Descending Chicago Center
15:01 42.5181 -86.8844 250° West 374 430 13,400 -2,100 Descending Chicago Center
15:02 42.4847 -87.0100 250° West 358 412 11,000 -1,560 Descending Chicago Center
15:03 42.4528 -87.1197 248° West 317 365 10,200 -1,020 Descending Chicago Center
15:04 42.4264 -87.2128 249° West 270 311 9,000 -600 Descending Chicago Center
15:05 42.3967 -87.3250 250° West 267 307 9,000  Level Chicago Center
15:06 42.3664 -87.4308 249° West 286 329 9,000  Level Chicago Center
15:07 42.2903 -87.4397 185° South 318 366 9,000  Level Chicago Center
15:08 42.2122 -87.3961 158° South 306 352 9,000 -180 Level Chicago Center
15:09 42.1167 -87.4167 189° South 293 337 8,700 -660 Descending Chicago TRACON
15:10 42.0500 -87.4333 191° South 283 326 7,700 -1,020 Descending Chicago TRACON
15:11 41.9833 -87.4833 209° Southwest 249 287 6,700 -1,020 Descending Chicago TRACON
15:12 41.9833 -87.5500 270° West 196 226 5,700 -1,080 Descending Chicago TRACON
15:13 41.9833 -87.6167 270° West 189 217 4,600 -1,080 Descending Chicago TRACON
15:14 41.9833 -87.7000 270° West 188 216 3,600 -1,020 Descending Chicago TRACON
15:15 41.9833 -87.7667 270° West 180 207 2,600 -960 Descending Chicago TRACON
15:16 41.9833 -87.8167 270° West 154 177 1,700 -900 Descending Chicago TRACON
15:17 41.9833 -87.8833 270° West 161 185 900 -840 Descending Chicago TRACON
15:19 41.9667 -87.9000 217° Southwest  Level FlightAware Approximate